SCP
0 0 0 0 0 0 0 0 0 0 0 0 0 0 0 0 0 0 0 0 0 0 0 0 -0 -0 -0 0 0 0 0 0 0 -0 -0 -0 0 -0 0 0 0 0 0 0 0 0 0
0 0 0 0 0 0 0 0 0 0 0 0 0 0 0 0 0 0 0 0 -0 0 -0 -0 -0 -0 -0 0 0 0 0 -0 0 -0 -0 -0 -0 0 0 0 0 0 0 0 0 0 0
0 0 0 0 0 0 0 0 0 0 0 0 0 0 0 0 0 0 0 0 0 -0 -0 -0 -0 -0 0 0 0 0 0 -0 -0 -0 -0 -0 -0 -0 0 0 0 0 0 0 0 0 0
0 0 0 0 0 0 -0 -0 -0 0 0 0 0 0 0 0 0 -0 0 0 0 0 -0 -0 -0 -0 0 -0 -0 -0 -0 -0 -0 -0 -0 -0 -0 -0 0 0 0 0 0 0 0 0 0
-0 -0 -0 -0 -0 -0 -0 -0 -0 -0 0 0 0 0 -0 -0 -0 -0 0 0 0 -0 -0 -0 -0 -0 0 -0 -0 -0 -0 -0 -0 -0 -0 -0 -0 -0 -0 -0 0 0 0 0 0 0 0
-0 -0 -0 -0 -0 -0 -0 -0 -0 -0 -0 -0 -0 -0 0 0 0 0 0 -0 0 -0 -0 -0 -0 -0 -0 0 0 -0 -0 -0 -0 -0 -0 -0 -0 -0 -0 -0 0 0 0 0 0 0 0
-0 -0 -0 -0 -0 -0 -0 -0 -0 -0 -0 -0 -0 -0 0 0 0 0 -0 -0 -0 -0 -0 -0 0 0 -0 -0 -0 -0 -0 0 -0 -0 -0 -0 -0 0 0 0 0 0 0 0 0 0 0
-0 -0 -0 -0 -0 -0 -0 -0 -0 -0 -0 -0 -0 -0 -0 -0 0 -0 -0 -0 0 0 -0 -0 -0 -0 -0 -0 0 0 0 0 -0 -0 0 -0 0 0 0 0 0 0 0 0 0 0 0
-0 -0 -0 -0 -0 -0 -0 -0 -0 -0 -0 -0 -0 -0 -0 -0 0 -0 0 -0 0 0 -0 -0 0 0 0 0 0 -0 0 -0 -0 0 -0 0 0 0 -0 0 0 0 0 0 0 0 0
-0 -0 -0 -0 -0 -0 -0 -0 -0 -0 -0 -0 -0 -0 -0 -0 -0 0 0 0 -0 -0 0 0 0 0 0 0 0 0 0 0 0 0 0 0 0 0 0 0 0 0 0 0 0 0 0
-0 -0 -0 -0 -0 -0 -0 -0 -0 -0 -0 -0 -0 -0 -0 0 -0 0 -0 -0 0 0 0 0 0 0 0 0 0 0 0 0 0 0 0 0 0 0 0 0 0 0 0 0 0 0 0
-0 -0 -0 -0 -0 -0 -0 -0 -0 -0 -0 -0 -0 -0 -0 0 0 0 0 0 0 0 0 0 0 0 0 0 0 0 0 0 0 0 0 0 0 0 0 0 0 0 -0 0 0 -0 0
-0 -0 -0 -0 -0 -0 -0 -0 -0 -0 -0 -0 -0 -0 -0 -0 0 -0 -0 -0 -0 0 0 0 0 0 0 0 0 0 0 0 0 0 0 0 0 0 0 0 0 0 0 0 0 0 0
0 -0 -0 -0 -0 -0 -0 -0 -0 -0 -0 -0 -0 0 0 -0 -0 0 -0 -0 0 0 0 0 0 0 0 0 0 0 0 0 0 0 0 0 0 0 0 0 0 0 0 0 0 0 0
0 0 0 0 -0 -0 -0 -0 -0 -0 -0 -0 0 0 0 -0 -0 -0 -0 0 0 0 0 0 0 0 0 0 0 0 0 0 0 0 0 0 0 0 0 0 0 0 0 0 0 0 0
0 0 0 0 0 0 0 -0 -0 -0 -0 -0 0 0 0 0 0 0 0 0 0 0 0 0 0 0 0 0 0 0 0 0 0 0 0 0 0 0 0 0 0 0 0 0 0 0 0
0 0 0 0 0 0 0 -0 -0 -0 -0 -0 0 0 0 0 0 0 0 0 0 0 0 0 0 0 0 0 0 0 0 0 0 0 0 0 0 0 0 0 0 0 0 0 0 0 0
0 0 0 0 0 -0 -0 -0 -0 -0 -0 0 0 0 0 0 0 0 0 0 0 0 0 0 0 0 0 0 0 0 0 0 0 0 0 0 0 0 0 0 0 0 0 0 0 0 0
0 0 0 0 0 -0 -0 -0 -0 -0 -0 0 0 0 0 0 0 0 0 0 0 0 0 0 0 0 0 0 0 0 0 0 0 0 0 0 0 0 0 0 0 0 0 0 0 0 0
0 0 0 0 0 -0 -0 -0 -0 -0 -0 -0 -0 0 0 0 0 0 0 0 0 0 0 0 0 0 0 0 0 0 0 0 0 0 0 0 0 0 0 0 0 0 0 0 0 0 0
0 0 0 0 0 -0 -0 -0 -0 -0 -0 -0 -0 0 0 0 0 0 0 0 0 0 0 0 0 0 0 0 0 0 0 0 0 0 0 0 0 0 0 0 0 0 0 0 0 0 0
0 0 0 0 0 -0 -0 -0 -0 -0 -0 0 -0 0 0 0 0 0 0 0 0 0 0 0 0 0 0 0 0 0 0 0 0 0 0 0 0 0 0 0 0 0 0 0 0 0 0
0 0 0 0 0 -0 0 -0 -0 0 -0 0 0 0 0 0 0 0 0 0 0 0 0 0 0 0 0 0 0 0 0 0 0 0 0 0 0 0 0 0 0 0 0 0 0 0 0
0 0 0 0 0 -0 -0 -0 0 -0 -0 0 0 0 0 0 0 0 0 0 0 0 0 0 0 0 0 0 0 0 0 0 0 0 0 0 0 0 0 0 0 0 0 0 0 0 0
0 0 0 0 0 -0 -0 -0 -0 -0 -0 0 0 0 0 0 0 0 0 0 0 0 0 0 0 0 0 0 0 0 0 0 0 0 0 0 0 0 0 0 0 0 0 0 0 0 0
0 0 0 0 0 -0 -0 0 0 -0 -0 0 0 0 0 0 0 0 0 0 0 0 0 0 0 0 0 0 0 0 0 0 0 0 0 0 0 0 0 0 0 0 0 0 0 0 0
0 0 0 0 0 -0 -0 0 0 0 -0 0 0 0 0 0 0 0 0 0 0 0 0 0 0 0 0 0 0 0 0 0 0 0 0 0 0 0 0 0 0 0 0 0 0 0 0
0 0 0 0 0 -0 -0 -0 0 0 -0 0 0 0 0 0 0 0 0 0 0 0 0 0 0 0 0 0 0 0 0 0 0 0 0 0 0 0 0 0 0 0 0 0 0 0 0
0 0 0 0 0 -0 -0 -0 0 0 -0 0 0 0 0 0 0 -0 -0 -0 -0 -0 0 0 0 0 0 0 0 0 0 0 0 0 0 0 0 0 0 0 0 0 0 0 0 0 0
Wind_Speed_500mb
44 45 47 48 48 48 46 43 39 35 33 30 27 24 22 23 23 22 22 23 23 22 20 19 21 20 16 7 4 7 10 15 19 24 29 30 30 27 23 26 18 27 23 18 21 18 18
42 44 44 46 47 46 47 45 42 37 33 29 25 21 20 20 19 19 21 22 22 20 18 20 21 18 8 8 14 12 17 19 18 22 22 20 17 20 15 12 28 6 19 16 13 20 19
41 42 44 45 46 45 45 44 42 39 34 29 25 20 17 17 16 17 18 20 20 19 19 23 20 14 4 7 15 15 18 16 17 13 12 15 13 18 6 13 16 15 20 22 22 22 19
42 44 45 45 45 44 43 43 42 39 35 30 25 22 17 16 15 14 15 17 16 19 23 19 11 5 2 10 15 17 18 13 14 11 6 7 13 14 14 2 12 18 16 19 18 8 9
44 44 45 45 45 44 43 42 40 38 35 31 27 23 19 17 15 13 13 14 20 19 18 8 3 4 15 5 8 19 21 8 15 13 10 9 11 11 11 21 16 15 8 9 13 5 7
48 48 47 46 46 47 45 42 39 37 35 31 27 23 19 16 12 12 12 19 13 11 4 6 4 8 10 12 11 18 26 21 11 19 16 12 13 16 12 20 3 8 8 10 5 7 6
56 56 55 52 49 47 45 44 40 36 33 30 27 23 19 15 11 4 11 7 7 4 12 11 1 9 6 2 14 17 24 24 19 17 12 16 15 14 14 15 10 5 2 1 7 6 1
59 59 59 59 58 54 49 46 43 39 33 28 23 21 18 14 7 1 3 2 8 11 8 7 7 7 6 12 22 22 25 26 20 17 15 15 15 10 4 2 6 10 14 8 7 5 12
58 60 61 61 60 59 56 51 46 41 35 29 23 20 19 17 4 4 6 6 21 14 11 8 5 6 7 11 9 15 24 17 12 17 22 9 19 5 8 4 13 10 19 12 16 1 13
59 61 61 61 62 61 60 56 50 44 39 31 25 21 18 16 5 8 7 12 23 7 11 9 9 6 7 8 9 6 10 10 10 13 16 9 8 6 7 4 15 28 9 16 22 18 18
58 60 62 62 63 63 62 60 55 51 42 33 26 21 16 13 13 8 11 13 19 5 12 10 10 5 4 3 10 8 4 11 15 19 14 15 12 7 7 10 10 11 19 21 21 23 26
59 60 61 63 65 65 64 63 60 55 47 37 24 23 19 16 13 16 12 13 6 13 5 11 6 3 11 5 6 7 8 10 9 10 3 15 8 3 7 6 6 17 18 17 18 22 20
59 60 61 63 66 67 67 66 63 58 50 40 26 21 22 18 6 9 10 7 12 17 9 11 7 4 5 4 7 2 7 13 12 17 23 14 8 8 7 14 14 15 15 15 16 15 6
62 63 63 64 66 68 69 68 66 61 51 39 25 16 22 21 19 16 9 13 17 2 8 8 7 7 8 3 5 4 8 13 3 11 12 19 17 13 3 6 10 5 12 13 11 11 1
64 65 66 67 68 70 71 70 68 64 52 38 25 10 16 19 16 15 17 17 14 8 10 13 10 14 12 10 9 13 11 9 2 6 11 8 9 9 3 2 8 10 9 10 13 8 13
64 66 67 69 69 70 72 72 71 67 55 39 22 6 10 13 14 17 15 18 3 5 8 13 17 6 13 14 11 10 13 9 11 3 4 8 8 11 10 10 7 15 7 10 12 12 18
64 66 67 70 72 73 73 72 72 70 60 41 8 10 7 12 17 16 17 15 7 11 14 12 14 10 9 11 16 11 3 13 9 12 3 2 7 15 8 17 10 12 17 11 11 10 14
67 68 70 71 73 75 74 72 71 72 66 45 8 7 10 13 17 10 18 10 3 13 17 10 8 10 14 13 11 11 11 6 15 13 6 5 6 12 4 6 7 12 13 14 14 13 13
64 66 68 71 73 75 77 74 69 66 65 45 18 6 9 3 14 17 10 15 10 13 19 14 13 10 9 12 10 14 8 7 18 16 7 11 9 13 17 14 15 16 15 16 14 13 25
63 64 66 68 70 73 76 76 71 62 52 34 13 5 6 5 7 10 9 18 17 11 12 14 7 12 13 13 13 9 15 13 17 22 10 5 17 21 22 21 9 15 21 24 25 19 22
61 62 64 66 68 70 72 75 74 67 46 29 20 7 6 9 1 16 12 9 17 11 13 16 12 24 20 12 17 17 17 16 17 18 15 13 25 24 28 24 18 26 25 28 33 31 26
62 62 62 63 66 69 71 72 73 70 55 22 15 12 10 16 14 15 3 6 12 1 8 17 22 20 20 21 21 8 16 19 19 24 26 18 25 19 29 28 27 33 31 32 33 34 33
61 61 61 60 61 65 68 70 71 70 65 17 20 15 9 5 6 8 3 6 2 12 12 19 19 22 19 26 29 17 14 15 17 20 25 23 18 21 30 22 19 32 36 38 36 35 32
58 58 59 59 59 60 63 65 66 67 65 43 21 14 11 10 7 8 12 16 20 18 21 29 19 20 8 3 6 9 14 16 19 26 25 23 25 21 24 12 27 24 2 16 26 32 34
58 55 55 56 57 58 59 61 62 62 62 52 28 7 10 12 11 6 12 10 12 12 13 15 11 9 6 12 15 15 17 20 30 33 24 24 24 21 19 25 30 30 16 19 21 28 33
57 56 54 53 54 56 58 58 59 60 60 54 25 9 7 18 7 11 13 10 13 10 13 1 3 3 9 10 16 24 24 26 13 18 6 17 21 21 23 28 32 25 6 20 12 25 31
57 56 54 50 51 54 57 59 59 58 58 53 24 8 6 14 4 9 9 11 10 10 11 8 7 6 8 13 19 22 23 17 22 30 17 16 13 27 26 31 34 22 3 14 23 17 8
59 58 56 53 49 52 57 60 60 59 58 49 19 12 9 10 13 5 8 14 15 11 12 10 14 10 10 12 16 17 12 14 12 23 21 25 20 22 21 32 26 14 13 19 18 14 11
61 59 55 52 52 51 57 61 62 61 58 41 13 8 11 12 10 2 5 16 11 18 22 6 12 11 8 8 5 7 12 9 20 23 3 17 14 14 12 6 20 16 18 22 26 19 15
Wind_Direction_500mb
351 349 349 348 349 350 350 348 343 338 332 325 317 307 294 283 278 278 277 277 284 294 299 301 310 319 330 271 193 147 128 132 147 160 177 182 190 204 221 213 195 233 249 231 239 246 239
349 349 349 348 350 352 353 351 348 345 341 335 326 315 303 290 283 276 275 279 288 295 293 300 311 321 321 208 157 138 130 127 153 161 181 200 211 210 232 216 221 190 254 241 247 235 235
349 349 351 351 351 351 352 353 350 348 345 341 333 322 307 291 280 279 280 286 294 292 294 301 305 326 218 43 164 159 151 148 167 159 174 195 212 205 177 200 236 246 251 240 238 248 226
353 352 352 353 352 349 350 353 353 351 347 342 339 331 318 299 287 283 286 294 295 293 297 296 291 332 245 163 181 166 169 177 172 184 161 189 203 244 246 203 210 236 240 235 94 206 151
358 355 354 354 353 351 349 350 351 352 350 346 341 334 326 315 308 303 304 306 306 295 294 278 271 157 137 149 170 193 186 183 189 194 182 160 188 240 203 229 192 190 209 229 135 76 155
9 5 0 356 354 354 351 348 345 348 351 350 344 336 330 323 320 319 323 315 306 300 234 314 237 210 176 125 143 153 179 167 154 155 166 207 207 197 188 209 110 83 170 140 164 73 241
19 15 11 6 360 355 353 349 343 342 344 346 348 345 340 335 327 328 331 336 325 224 258 262 166 302 154 173 170 164 170 180 167 203 183 189 228 75 63 37 32 12 322 35 103 86 154
19 17 15 12 8 2 356 352 348 341 332 333 339 349 353 352 334 244 14 295 357 315 269 238 240 274 254 171 147 158 172 196 203 174 152 201 99 99 103 188 292 304 300 112 144 77 266
18 16 14 11 8 6 2 355 349 342 330 318 318 322 330 342 317 201 218 252 341 340 252 134 153 79 112 158 123 141 188 202 215 177 197 340 110 154 245 195 292 270 296 315 315 136 237
18 15 13 10 8 6 2 358 352 344 336 315 300 304 315 330 306 293 239 309 342 328 221 118 147 89 156 168 103 105 180 196 184 189 169 108 135 194 232 252 312 295 73 296 282 251 264
14 13 12 9 7 5 3 359 354 347 338 325 288 281 288 291 272 273 253 308 333 285 205 118 102 105 99 235 118 79 128 221 196 170 219 108 169 206 256 338 310 317 319 287 277 260 263
12 10 9 8 6 3 2 0 356 350 343 332 304 264 268 278 274 263 261 302 300 230 162 134 128 200 177 93 101 121 144 105 118 139 128 122 125 2 10 241 286 302 273 252 249 239 229
9 8 8 7 5 2 1 0 357 351 346 334 316 257 245 253 234 251 260 251 223 244 130 158 132 145 136 122 128 193 177 164 234 207 189 164 163 133 317 241 214 288 253 235 210 199 248
7 6 6 6 5 3 360 360 359 353 347 339 327 261 237 241 251 256 218 226 240 259 192 102 147 158 233 198 152 181 198 206 136 251 270 252 197 188 125 354 320 309 309 314 302 269 236
6 5 6 6 6 5 1 359 359 357 349 340 330 269 244 237 235 220 227 228 222 198 140 167 169 225 179 191 266 219 238 265 143 239 261 232 185 141 156 25 278 120 251 10 286 231 261
5 4 4 5 7 7 4 359 358 360 354 343 333 230 211 230 218 182 241 257 241 181 154 195 246 229 249 188 228 213 191 144 158 169 298 113 241 199 139 225 186 291 71 217 195 260 258
3 2 2 3 5 7 7 3 358 359 359 351 357 232 263 192 172 215 241 250 244 197 201 224 249 210 241 212 242 226 214 137 190 158 235 197 264 142 201 209 296 178 215 233 303 292 284
0 360 359 359 1 4 7 7 3 359 1 6 354 238 353 174 227 240 254 237 227 199 202 212 253 236 211 203 219 234 238 257 179 181 217 101 280 257 232 97 270 265 281 254 259 187 238
358 359 358 357 357 0 4 8 8 3 2 3 343 351 354 171 246 227 213 245 247 207 210 203 202 209 186 200 228 228 218 150 185 203 215 170 211 257 177 192 205 238 217 245 261 275 262
354 356 357 357 356 357 0 6 8 8 6 6 344 303 55 64 44 329 322 257 244 224 217 211 173 177 182 205 217 208 216 173 199 222 115 179 260 261 286 339 310 215 230 224 231 257 258
352 353 354 356 356 354 357 2 7 9 11 23 10 44 6 321 165 328 296 295 270 210 221 206 202 221 210 224 211 223 221 171 200 171 202 230 255 256 263 277 253 258 249 225 235 246 258
348 350 352 353 354 354 355 357 3 8 12 28 8 347 321 290 300 294 172 246 291 267 252 217 240 241 225 230 220 243 219 214 225 183 216 217 252 266 268 263 247 247 247 246 239 242 249
345 347 349 351 352 353 353 353 358 3 10 11 348 324 296 284 267 272 14 332 340 322 256 268 279 275 237 239 254 249 225 234 238 227 217 221 250 241 267 273 263 247 251 242 238 242 248
342 345 346 348 350 350 351 351 353 358 2 358 334 324 284 296 271 328 318 308 288 282 280 284 293 267 307 351 148 175 211 234 229 232 243 230 243 257 256 251 247 258 298 280 257 243 235
338 342 345 347 348 347 347 348 349 350 353 352 338 319 295 292 321 279 326 319 293 270 253 276 275 299 283 206 220 214 218 224 234 234 233 241 245 250 244 243 252 268 245 230 228 252 237
338 339 343 346 348 347 345 344 345 345 346 347 336 309 285 303 71 340 313 315 309 323 266 200 335 328 198 247 225 249 257 277 260 163 229 221 239 251 246 243 262 257 268 210 251 255 264
336 336 339 344 348 347 344 342 341 341 341 342 322 298 256 276 302 331 334 337 310 293 283 266 338 235 228 238 249 258 272 282 267 271 227 201 230 236 247 255 259 275 183 181 227 275 357
329 327 333 339 346 347 344 342 339 337 337 338 306 279 217 275 297 263 306 306 305 272 294 25 278 191 231 251 262 270 249 268 264 269 274 274 252 254 257 260 264 220 160 233 353 346 333
325 327 322 328 337 345 342 340 337 334 334 332 313 279 243 237 280 190 84 32 329 277 268 246 319 309 327 273 226 290 246 238 270 279 183 262 331 293 251 288 32 346 343 22 9 359 1
Wind_Speed_850mb
44 45 47 48 48 48 46 43 39 35 33 30 27 24 22 23 23 22 22 23 23 22 20 19 21 20 16 7 4 7 10 15 19 24 29 30 30 27 23 26 18 27 23 18 21 18 18
42 44 44 46 47 46 47 45 42 37 33 29 25 21 20 20 19 19 21 22 22 20 18 20 21 18 8 8 14 12 17 19 18 22 22 20 17 20 15 12 28 6 19 16 13 20 19
41 42 44 45 46 45 45 44 42 39 34 29 25 20 17 17 16 17 18 20 20 19 19 23 20 14 4 7 15 15 18 16 17 13 12 15 13 18 6 13 16 15 20 22 22 22 19
42 44 45 45 45 44 43 43 42 39 35 30 25 22 17 16 15 14 15 17 16 19 23 19 11 5 2 10 15 17 18 13 14 11 6 7 13 14 14 2 12 18 16 19 18 8 9
44 44 45 45 45 44 43 42 40 38 35 31 27 23 19 17 15 13 13 14 20 19 18 8 3 4 15 5 8 19 21 8 15 13 10 9 11 11 11 21 16 15 8 9 13 5 7
48 48 47 46 46 47 45 42 39 37 35 31 27 23 19 16 12 12 12 19 13 11 4 6 4 8 10 12 11 18 26 21 11 19 16 12 13 16 12 20 3 8 8 10 5 7 6
56 56 55 52 49 47 45 44 40 36 33 30 27 23 19 15 11 4 11 7 7 4 12 11 1 9 6 2 14 17 24 24 19 17 12 16 15 14 14 15 10 5 2 1 7 6 1
59 59 59 59 58 54 49 46 43 39 33 28 23 21 18 14 7 1 3 2 8 11 8 7 7 7 6 12 22 22 25 26 20 17 15 15 15 10 4 2 6 10 14 8 7 5 12
58 60 61 61 60 59 56 51 46 41 35 29 23 20 19 17 4 4 6 6 21 14 11 8 5 6 7 11 9 15 24 17 12 17 22 9 19 5 8 4 13 10 19 12 16 1 13
59 61 61 61 62 61 60 56 50 44 39 31 25 21 18 16 5 8 7 12 23 7 11 9 9 6 7 8 9 6 10 10 10 13 16 9 8 6 7 4 15 28 9 16 22 18 18
58 60 62 62 63 63 62 60 55 51 42 33 26 21 16 13 13 8 11 13 19 5 12 10 10 5 4 3 10 8 4 11 15 19 14 15 12 7 7 10 10 11 19 21 21 23 26
59 60 61 63 65 65 64 63 60 55 47 37 24 23 19 16 13 16 12 13 6 13 5 11 6 3 11 5 6 7 8 10 9 10 3 15 8 3 7 6 6 17 18 17 18 22 20
59 60 61 63 66 67 67 66 63 58 50 40 26 21 22 18 6 9 10 7 12 17 9 11 7 4 5 4 7 2 7 13 12 17 23 14 8 8 7 14 14 15 15 15 16 15 6
62 63 63 64 66 68 69 68 66 61 51 39 25 16 22 21 19 16 9 13 17 2 8 8 7 7 8 3 5 4 8 13 3 11 12 19 17 13 3 6 10 5 12 13 11 11 1
64 65 66 67 68 70 71 70 68 64 52 38 25 10 16 19 16 15 17 17 14 8 10 13 10 14 12 10 9 13 11 9 2 6 11 8 9 9 3 2 8 10 9 10 13 8 13
64 66 67 69 69 70 72 72 71 67 55 39 22 6 10 13 14 17 15 18 3 5 8 13 17 6 13 14 11 10 13 9 11 3 4 8 8 11 10 10 7 15 7 10 12 12 18
64 66 67 70 72 73 73 72 72 70 60 41 8 10 7 12 17 16 17 15 7 11 14 12 14 10 9 11 16 11 3 13 9 12 3 2 7 15 8 17 10 12 17 11 11 10 14
67 68 70 71 73 75 74 72 71 72 66 45 8 7 10 13 17 10 18 10 3 13 17 10 8 10 14 13 11 11 11 6 15 13 6 5 6 12 4 6 7 12 13 14 14 13 13
64 66 68 71 73 75 77 74 69 66 65 45 18 6 9 3 14 17 10 15 10 13 19 14 13 10 9 12 10 14 8 7 18 16 7 11 9 13 17 14 15 16 15 16 14 13 25
63 64 66 68 70 73 76 76 71 62 52 34 13 5 6 5 7 10 9 18 17 11 12 14 7 12 13 13 13 9 15 13 17 22 10 5 17 21 22 21 9 15 21 24 25 19 22
61 62 64 66 68 70 72 75 74 67 46 29 20 7 6 9 1 16 12 9 17 11 13 16 12 24 20 12 17 17 17 16 17 18 15 13 25 24 28 24 18 26 25 28 33 31 26
62 62 62 63 66 69 71 72 73 70 55 22 15 12 10 16 14 15 3 6 12 1 8 17 22 20 20 21 21 8 16 19 19 24 26 18 25 19 29 28 27 33 31 32 33 34 33
61 61 61 60 61 65 68 70 71 70 65 17 20 15 9 5 6 8 3 6 2 12 12 19 19 22 19 26 29 17 14 15 17 20 25 23 18 21 30 22 19 32 36 38 36 35 32
58 58 59 59 59 60 63 65 66 67 65 43 21 14 11 10 7 8 12 16 20 18 21 29 19 20 8 3 6 9 14 16 19 26 25 23 25 21 24 12 27 24 2 16 26 32 34
58 55 55 56 57 58 59 61 62 62 62 52 28 7 10 12 11 6 12 10 12 12 13 15 11 9 6 12 15 15 17 20 30 33 24 24 24 21 19 25 30 30 16 19 21 28 33
57 56 54 53 54 56 58 58 59 60 60 54 25 9 7 18 7 11 13 10 13 10 13 1 3 3 9 10 16 24 24 26 13 18 6 17 21 21 23 28 32 25 6 20 12 25 31
57 56 54 50 51 54 57 59 59 58 58 53 24 8 6 14 4 9 9 11 10 10 11 8 7 6 8 13 19 22 23 17 22 30 17 16 13 27 26 31 34 22 3 14 23 17 8
59 58 56 53 49 52 57 60 60 59 58 49 19 12 9 10 13 5 8 14 15 11 12 10 14 10 10 12 16 17 12 14 12 23 21 25 20 22 21 32 26 14 13 19 18 14 11
61 59 55 52 52 51 57 61 62 61 58 41 13 8 11 12 10 2 5 16 11 18 22 6 12 11 8 8 5 7 12 9 20 23 3 17 14 14 12 6 20 16 18 22 26 19 15
Wind_Direction_850mb
351 349 349 348 349 350 350 348 343 338 332 325 317 307 294 283 278 278 277 277 284 294 299 301 310 319 330 271 193 147 128 132 147 160 177 182 190 204 221 213 195 233 249 231 239 246 239
349 349 349 348 350 352 353 351 348 345 341 335 326 315 303 290 283 276 275 279 288 295 293 300 311 321 321 208 157 138 130 127 153 161 181 200 211 210 232 216 221 190 254 241 247 235 235
349 349 351 351 351 351 352 353 350 348 345 341 333 322 307 291 280 279 280 286 294 292 294 301 305 326 218 43 164 159 151 148 167 159 174 195 212 205 177 200 236 246 251 240 238 248 226
353 352 352 353 352 349 350 353 353 351 347 342 339 331 318 299 287 283 286 294 295 293 297 296 291 332 245 163 181 166 169 177 172 184 161 189 203 244 246 203 210 236 240 235 94 206 151
358 355 354 354 353 351 349 350 351 352 350 346 341 334 326 315 308 303 304 306 306 295 294 278 271 157 137 149 170 193 186 183 189 194 182 160 188 240 203 229 192 190 209 229 135 76 155
9 5 0 356 354 354 351 348 345 348 351 350 344 336 330 323 320 319 323 315 306 300 234 314 237 210 176 125 143 153 179 167 154 155 166 207 207 197 188 209 110 83 170 140 164 73 241
19 15 11 6 360 355 353 349 343 342 344 346 348 345 340 335 327 328 331 336 325 224 258 262 166 302 154 173 170 164 170 180 167 203 183 189 228 75 63 37 32 12 322 35 103 86 154
19 17 15 12 8 2 356 352 348 341 332 333 339 349 353 352 334 244 14 295 357 315 269 238 240 274 254 171 147 158 172 196 203 174 152 201 99 99 103 188 292 304 300 112 144 77 266
18 16 14 11 8 6 2 355 349 342 330 318 318 322 330 342 317 201 218 252 341 340 252 134 153 79 112 158 123 141 188 202 215 177 197 340 110 154 245 195 292 270 296 315 315 136 237
18 15 13 10 8 6 2 358 352 344 336 315 300 304 315 330 306 293 239 309 342 328 221 118 147 89 156 168 103 105 180 196 184 189 169 108 135 194 232 252 312 295 73 296 282 251 264
14 13 12 9 7 5 3 359 354 347 338 325 288 281 288 291 272 273 253 308 333 285 205 118 102 105 99 235 118 79 128 221 196 170 219 108 169 206 256 338 310 317 319 287 277 260 263
12 10 9 8 6 3 2 0 356 350 343 332 304 264 268 278 274 263 261 302 300 230 162 134 128 200 177 93 101 121 144 105 118 139 128 122 125 2 10 241 286 302 273 252 249 239 229
9 8 8 7 5 2 1 0 357 351 346 334 316 257 245 253 234 251 260 251 223 244 130 158 132 145 136 122 128 193 177 164 234 207 189 164 163 133 317 241 214 288 253 235 210 199 248
7 6 6 6 5 3 360 360 359 353 347 339 327 261 237 241 251 256 218 226 240 259 192 102 147 158 233 198 152 181 198 206 136 251 270 252 197 188 125 354 320 309 309 314 302 269 236
6 5 6 6 6 5 1 359 359 357 349 340 330 269 244 237 235 220 227 228 222 198 140 167 169 225 179 191 266 219 238 265 143 239 261 232 185 141 156 25 278 120 251 10 286 231 261
5 4 4 5 7 7 4 359 358 360 354 343 333 230 211 230 218 182 241 257 241 181 154 195 246 229 249 188 228 213 191 144 158 169 298 113 241 199 139 225 186 291 71 217 195 260 258
3 2 2 3 5 7 7 3 358 359 359 351 357 232 263 192 172 215 241 250 244 197 201 224 249 210 241 212 242 226 214 137 190 158 235 197 264 142 201 209 296 178 215 233 303 292 284
0 360 359 359 1 4 7 7 3 359 1 6 354 238 353 174 227 240 254 237 227 199 202 212 253 236 211 203 219 234 238 257 179 181 217 101 280 257 232 97 270 265 281 254 259 187 238
358 359 358 357 357 0 4 8 8 3 2 3 343 351 354 171 246 227 213 245 247 207 210 203 202 209 186 200 228 228 218 150 185 203 215 170 211 257 177 192 205 238 217 245 261 275 262
354 356 357 357 356 357 0 6 8 8 6 6 344 303 55 64 44 329 322 257 244 224 217 211 173 177 182 205 217 208 216 173 199 222 115 179 260 261 286 339 310 215 230 224 231 257 258
352 353 354 356 356 354 357 2 7 9 11 23 10 44 6 321 165 328 296 295 270 210 221 206 202 221 210 224 211 223 221 171 200 171 202 230 255 256 263 277 253 258 249 225 235 246 258
348 350 352 353 354 354 355 357 3 8 12 28 8 347 321 290 300 294 172 246 291 267 252 217 240 241 225 230 220 243 219 214 225 183 216 217 252 266 268 263 247 247 247 246 239 242 249
345 347 349 351 352 353 353 353 358 3 10 11 348 324 296 284 267 272 14 332 340 322 256 268 279 275 237 239 254 249 225 234 238 227 217 221 250 241 267 273 263 247 251 242 238 242 248
342 345 346 348 350 350 351 351 353 358 2 358 334 324 284 296 271 328 318 308 288 282 280 284 293 267 307 351 148 175 211 234 229 232 243 230 243 257 256 251 247 258 298 280 257 243 235
338 342 345 347 348 347 347 348 349 350 353 352 338 319 295 292 321 279 326 319 293 270 253 276 275 299 283 206 220 214 218 224 234 234 233 241 245 250 244 243 252 268 245 230 228 252 237
338 339 343 346 348 347 345 344 345 345 346 347 336 309 285 303 71 340 313 315 309 323 266 200 335 328 198 247 225 249 257 277 260 163 229 221 239 251 246 243 262 257 268 210 251 255 264
336 336 339 344 348 347 344 342 341 341 341 342 322 298 256 276 302 331 334 337 310 293 283 266 338 235 228 238 249 258 272 282 267 271 227 201 230 236 247 255 259 275 183 181 227 275 357
329 327 333 339 346 347 344 342 339 337 337 338 306 279 217 275 297 263 306 306 305 272 294 25 278 191 231 251 262 270 249 268 264 269 274 274 252 254 257 260 264 220 160 233 353 346 333
325 327 322 328 337 345 342 340 337 334 334 332 313 279 243 237 280 190 84 32 329 277 268 246 319 309 327 273 226 290 246 238 270 279 183 262 331 293 251 288 32 346 343 22 9 359 1